Henderson, KY

5:36 PM CST on November 18, 2019 (GMT -0600)
Henderson City-County

Weather History for KEHR - September, 2019

Change the Weather History Date:

Monday, September 30, 2019

  Actual Average Record
Temperature  
Mean Temperature 80 °F -  
Max Temperature 95 °F 78 °F 95 °F (2019)
Min Temperature 66 °F 53 °F 34 °F (1949)
Cooling Degree Days 16    
Growing Degree Days 30 (Base 50)    
Moisture  
Dew Point 66 °F    
Average Humidity 65    
Maximum Humidity 93    
Minimum Humidity 37    
Precipitation  
Precipitation 0.00 in - - ()
Sea Level Pressure  
Sea Level Pressure 30.09 in    
Wind  
Wind Speed 3 mph (SW)    
Max Wind Speed 13 mph    
Max Gust Speed 18 mph    
Visibility 9 miles    
Events      
Averages and records for this station are not official NWS values.
T = Trace of Precipitation, MM = Missing Value Source: NWS Daily Summary

Daily Weather History Graph

Daily Weather History Graph

Search for Another Location

Airport or City:

Astronomy

Sep. 30, 2019 Rise Set
Actual Time 6:45 AM CDT 6:35 PM CDT
Civil Twilight 6:19 AM CDT 7:01 PM CDT
Nautical Twilight 5:48 AM CDT 7:32 PM CDT
Astronomical Twilight 5:17 AM CDT 8:02 PM CDT
Moon 8:47 AM CDT (9/30) 8:13 PM CDT (9/30)
Length of Visible Light 12h 42m
Length of Day
11h 50m
Waxing Crescent, 6% of the Moon is Illuminated
Sep 30
Waxing Crescent
Oct 5
First Quarter
Oct 13
Full
Oct 21
Last Quarter
Oct 27
New

Hourly Weather History & Observations

Time (CDT) Temp. Heat Index Dew Point Humidity Pressure Visibility Wind Dir Wind Speed Gust Speed Precip Events Conditions
12:56 AM 66.9 °F - 62.1 °F 84% 30.10 in 10.0 mi Calm Calm - N/A   Clear
1:56 AM 69.1 °F - 64.9 °F 87% 30.10 in 10.0 mi Calm Calm - N/A   Clear
2:56 AM 68.0 °F - 64.0 °F 87% 30.10 in 10.0 mi Calm Calm - N/A   Clear
3:56 AM 68.0 °F - 64.9 °F 90% 30.10 in 10.0 mi Calm Calm - N/A   Clear
4:56 AM 68.0 °F - 64.0 °F 87% 30.11 in 10.0 mi Calm Calm - N/A   Clear
5:56 AM 66.0 °F - 64.0 °F 93% 30.12 in 10.0 mi Calm Calm - N/A   Clear
6:56 AM 66.0 °F - 64.0 °F 93% 30.12 in 10.0 mi Calm Calm - N/A   Clear
7:56 AM 72.0 °F - 66.0 °F 81% 30.14 in 10.0 mi Calm Calm - N/A   Clear
8:56 AM 81.0 °F 84.1 °F 69.1 °F 67% 30.15 in 9.0 mi SW 4.6 mph - N/A   Clear
9:56 AM 87.1 °F 91.3 °F 69.1 °F 55% 30.14 in 8.0 mi SW 5.8 mph - N/A   Clear
10:53 AM 91.4 °F 95.4 °F 68.0 °F 46% 30.15 in 2.0 mi WSW 5.8 mph - N/A   Haze
10:56 AM 91.0 °F 95.2 °F 68.0 °F 47% 30.14 in 1.8 mi WSW 9.2 mph - N/A   Haze
11:03 AM 91.4 °F 95.4 °F 68.0 °F 46% 30.15 in 4.0 mi West 9.2 mph - N/A   Haze
11:56 AM 93.9 °F 97.5 °F 66.9 °F 41% 30.13 in 9.0 mi West 11.5 mph 18.4 mph N/A   Scattered Clouds
12:56 PM 93.9 °F 96.1 °F 64.9 °F 38% 30.11 in 10.0 mi SW 12.7 mph - N/A   Clear
1:56 PM 93.0 °F 95.9 °F 66.0 °F 41% 30.08 in 10.0 mi SSW 11.5 mph - N/A   Partly Cloudy
2:56 PM 95.0 °F 97.9 °F 66.0 °F 38% 30.07 in 10.0 mi SSW 9.2 mph - N/A   Partly Cloudy
3:56 PM 95.0 °F 97.4 °F 64.9 °F 37% 30.05 in 10.0 mi SSW 12.7 mph 17.3 mph N/A   Clear
4:56 PM 91.0 °F 93.8 °F 66.0 °F 44% 30.04 in 9.0 mi SSW 8.1 mph - N/A   Clear
5:56 PM 90.0 °F 92.4 °F 66.0 °F 45% 30.03 in 10.0 mi SW 10.4 mph - N/A   Partly Cloudy
6:56 PM 82.0 °F 84.1 °F 66.0 °F 58% 30.04 in 10.0 mi SSW 3.5 mph - N/A   Clear
7:56 PM 75.9 °F - 66.0 °F 71% 30.04 in 10.0 mi South 3.5 mph - N/A   Clear
8:56 PM 73.0 °F - 64.9 °F 76% 30.04 in 10.0 mi Calm Calm - N/A   Clear
9:56 PM 71.1 °F - 64.9 °F 81% 30.04 in 10.0 mi Calm Calm - N/A   Clear
10:56 PM 70.0 °F - 64.9 °F 84% 30.04 in 10.0 mi SSW 3.5 mph - N/A   Clear
11:56 PM 70.0 °F - 64.9 °F 84% 30.04 in 10.0 mi South 3.5 mph - N/A   Clear